Other Public Products
Issued by NWS Grand Forks, ND

Home | Current Version | Previous Version | Text Only | Print | Product List | Glossary Off
Versions: 1 2 3 4 5 6 7 8 9 10 11 12 13 14 15 16 17 18 19 20 21 22 23 24 25 26 27 28 29 30 31 32 33 34 35 36 37 38 39 40 41 42 43 44 45 46 47 48 49 50

000
FPUS83 KFGF 251410
OPUFGF
PRAIRIE TO PINES WEATHER ROUNDUP
NATIONAL WEATHER SERVICE EASTERN NORTH DAKOTA/GRAND FORKS ND
800 AM CST THU DEC 25 2014

 **SATELLITE DATA USED TO AUGMENT SKY COVER AT AUTOMATED STATIONS**
 *****  WEATHER ACROSS EASTERN NORTH DAKOTA  *****

CITY           SKY/WX    TMP DP  RH WIND       PRES   REMARKS
GRAND FORKS    CLOUDY    25  22  88 W9        29.65R WCI  15
GRAND FORKS AF CLOUDY    24  24  99 W8        29.65R WCI  15
GRAND CITY NWS   N/A     25 N/A N/A W10         N/A  WCI  15
BUXTON         NOT AVBL
DEVILS LAKE    CLOUDY    19  16  86 W9        29.64R WCI   9
FARGO          CLOUDY    27  24  89 NW7       29.64R WCI  19
WAHPETON ARPT  CLOUDY    28  25  86 NW8       29.64R WCI  20
$$

 *****  WEATHER ACROSS CENTRAL AND WESTERN NORTH DAKOTA  *****

CITY           SKY/WX    TMP DP  RH WIND       PRES   REMARKS
JAMESTOWN      CLOUDY    22  19  89 N15       29.63R WCI   9
BISMARCK       MOCLDY    27  22  81 NW10      29.68R WCI  17
MINOT          CLOUDY    26  21  81 N7        29.68R WCI  18
MINOT AFB      CLOUDY    26  26  98 N9        29.68R WCI  17
GARRISON         N/A     26  23  88 NW9       29.67R WCI  17
WILLISTON      CLOUDY    25  20  81 N13       29.75R WCI  14
DICKINSON      CLOUDY    25  21  85 NW13      29.67R WCI  14
HETTINGER      CLOUDY    24  21  88 N12       29.67R WCI  13
$$

 *****  OTHER OBSERVATIONS NORTHEAST NORTH DAKOTA  *****

CITY           SKY/WX    TMP DP  RH WIND       PRES   REMARKS
WALHALLA         N/A     27  27 100 NW10      29.63R WCI  17
LANGDON        CLOUDY    25  25 100 NW12      29.60R WCI  14
CAVALIER       CLOUDY    28  25  86 NW10      29.63R WCI  19
GRAFTON        NOT AVBL
CANDO          CLOUDY    23  21  93 W10       29.64S WCI  12
FORT TOTTEN      N/A     17  15  92 W2        29.95
ROLLA          CLOUDY    25  25 100 NW13      29.63R WCI  13
RUGBY          CLOUDY    23  23 100 NW8       29.66R WCI  14
 ***** THE ABOVE OBSERVATIONS ARE NON NWS ARE NOT QUALITY
        CONTROLLED AND MAY MIS-REPORT RAIN FOR SNOW...
$$

 *****  OTHER OBSERVATIONS SOUTHEAST NORTH DAKOTA *****

CITY           SKY/WX    TMP DP  RH WIND       PRES   REMARKS
COOPERSTOWN    NOT AVBL
VALLEY CITY    CLOUDY    23  23 100 N14       29.64R WCI  11
OAKES            N/A     25  25 100 NW6       29.65R WCI  18
GWINNER        SUNNY     28  28 100 CALM      29.66R
SHEYENNE NWR     N/A     25  21  86 N7        29.95  WCI  17
BUFFALO        NOT AVBL
WYNDMERE         N/A     27  25  93 NW6         N/A  WCI  20
 ***** THE ABOVE OBSERVATIONS ARE NON NWS ARE NOT QUALITY
       CONTROLLED AND MAY MIS-REPORT RAIN FOR SNOW...
$$

  *****  WEATHER ACROSS NORTHERN MINNESOTA  *****

CITY           SKY/WX    TMP DP  RH WIND       PRES   REMARKS
FLAG ISLAND    CLOUDY    28  27  93 W8        29.52R WCI  20
WARROAD        CLOUDY    28  25  86 W7        29.56R WCI  21
ROSEAU         CLOUDY    30  25  80 W7        29.57R WCI  23
HALLOCK        CLOUDY    28  27  93 NW9       29.61R WCI  20
THF RVR FALLS  CLOUDY    28  27  93 W10       29.61R WCI  19
HALSTAD          N/A     27  23  86 NW5         N/A  WCI  21
FOSSTON        CLOUDY    25  25 100 W8        29.62R WCI  16
BAUDETTE       CLOUDY    29  25  85 W6        29.54R WCI  23
WASKISH        CLOUDY    30  28  93 W13       29.57R WCI  20
CROOKSTON      CLOUDY    28  27  93 NW13      29.64R WCI  18
$$
  *****  WEATHER ACROSS CENTRAL AND WEST MINNESOTA  *****

CITY           SKY/WX    TMP DP  RH WIND       PRES   REMARKS
BEMIDJI        CLOUDY    28  26  90 W10G16    29.58R FOG     WCI  19
PARK RAPIDS    CLOUDY    30  27  88 W10       29.58R WCI  21
WADENA         CLOUDY    28  27  93 SW8       29.59R WCI  20
DETROIT LAKES  CLOUDY    28  28 100 NW7       29.61R FOG     WCI  21
MOORHEAD       CLOUDY    27  27 100 N8        29.64R WCI  18
FERGUS FALLS   CLOUDY    28  27  93 NW6       29.65R WCI  22
ELBOW LAKE     CLOUDY    28  27  98 SW5       29.62R WCI  22
MORRIS MN      MOCLDY    28  28 100 S3        29.63R FOG
STAPLES        CLOUDY    28  27  93 SW5       29.60R WCI  23
WHEATON        MOCLDY    28  27  93 W6        29.66R WCI  22
$$
  *****  WEATHER ELSEWHERE ACROSS MINNESOTA  *****

CITY           SKY/WX    TMP DP  RH WIND       PRES   REMARKS
DULUTH         CLOUDY    31  27  85 W13       29.57R WCI  21
INTRNTL FALLS  CLOUDY    30  26  85 W6        29.53R WCI  24
ELY            CLOUDY    30  27  86 W6        29.54R WCI  24
CLOQUET        CLOUDY    30  28  93 SW7       29.59R WCI  23
BRAINERD       CLOUDY    29  26  89 SW9       29.61R WCI  20
HIBBING        CLOUDY    31  26  82 VRB7      29.56R WCI  24
ALEXANDRIA     CLOUDY    28  26  92 SW5       29.62R WCI  23
SAINT CLOUD    CLOUDY    32  27  81 S8        29.64R WCI  25
MINNEAPOLIS    CLOUDY    30  26  85 S7        29.68R WCI  23
$$

  *****  WEATHER ACROSS SOUTH DAKOTA  *****

CITY           SKY/WX    TMP DP  RH WIND       PRES   REMARKS
SIOUX FALLS    MOCLDY    28  25  88 NE9       29.59R WCI  19
BROOKINGS      NOT AVBL
WATERTOWN      LGT SNOW  28  26  92 N3        29.61R FOG
HURON          LGT SNOW  28  26  92 N7        29.62R FOG     WCI  21
SISSETON         N/A     31  27  85 N10       29.63R WCI  22
ABERDEEN       CLOUDY    31  25  78 N9        29.65R WCI  23
MITCHELL       CLOUDY    29  26  89 N5        29.62R WCI  24
PIERRE         LGT SNOW  32  31  96 NE9       29.61R FOG     WCI  24
MOBRIDGE       CLOUDY    31  26  82 CALM      29.62R
RAPID CITY     LGT SNOW  30  28  92 N14       29.62R FOG     WCI  19
$$

  *****  SOME WEATHER IN NEARBY STATES *****

CITY           SKY/WX    TMP DP  RH WIND       PRES   REMARKS
GLASGOW MT     CLOUDY    25  18  74 NW12      29.81R WCI  14
GREAT FALLS MT MIX PCPN  22  20  92 N5        29.84R WCI  16
CHEYENNE WY    CLOUDY    31  20  63 N3        29.44R
SCOTTSBLUFF NE CLOUDY    33  27  78 NE21      29.44R WCI  21
OMAHA NE       CLOUDY    32  27  81 S13       29.66R WCI  22
DES MOINES IA  CLOUDY    33  28  81 S10       29.74R WCI  25
DAVENPORT IA   CLOUDY    33  27  78 S9        29.87R
CHICAGO IL     CLOUDY    33  27  78 SW14G23   29.88R WCI  23
EAU CLAIRE WI  CLOUDY    30  25  81 SW12      29.70R WCI  20
LA CROSSE WI   CLOUDY    33  27  78 S6        29.76R
$$

  *****  SOME NATIONAL WEATHER *****

CITY           SKY/WX    TMP DP  RH WIND       PRES   REMARKS
LA GUARDIA NY  CLOUDY    50  37  61 W15G29    29.68R
RALEIGH NC     CLOUDY    52  39  61 W7        29.99R
ATLANTA GA     MOSUNNY   41  35  79 W7        30.16R
NEW ORLEANS LA MOSUNNY   43  39  86 CALM      30.26R
OKLAHOMA CITY  MOCLDY    37  25  61 S15       29.81R
ALBUQUERQUE NM PTCLDY    31  10  41 S8        29.72S WCI  23
SALT LAKE CITY FLURRIES  32  22  66 W14G21    29.58S WCI  22
LOS ANGELES CA PTCLDY    56  30  37 N14G26    29.81R
BOISE ID       PTCLDY    29  23  78 NW10      29.80R WCI  20
SEATTLE WA     MOCLDY    41  38  89 E5        30.14R
$$

*** WEATHER ACROSS MANITOBA...SASKATCHEWAN AND ONTARIO ***
                ***ONTARIO***

CITY           SKY/WX    TMP DP  RH WIND       PRES   REMARKS
GERALDTON      CLOUDY    23  21  93 NW8       29.46R WCI  14
THUNDER BAY    MOCLDY    27  27 100 W3        29.55R
SIOUX LOOKOUT  FLURRIES  28  27  93 SW3       29.46R
TORONTO        NOT AVBL
BIG TROUT LK   LGT SNOW  19  19 100 NE3       29.51R
PICKLE LAKE    FLURRIES  23  19  86 E2        29.46R
DRYDEN         LGT SNOW  27  27 100 W9        29.47R WCI  17
KENORA         LGT SNOW  27  27 100 W8        29.50R WCI  18
$$
                *** MANITOBA***

CITY           SKY/WX    TMP DP  RH WIND       PRES   REMARKS
BRANDON        CLOUDY    23  19  86 NW5       29.66R WCI  17
DAUPHIN        CLOUDY    23  21  93 N12       29.68R FOG     WCI  12
ISLAND LAKE    NOT AVBL
PILOT MOUND      N/A     25  21  86 NW13        N/A  WCI  13
THE PAS        NOT AVBL
THOMPSON       FLURRIES  14  12  92 NW3       29.64R
WINNIPEG       MOCLDY    25  21  86 NW17      29.61R WCI  11
CHURCHILL      FLURRIES  16  16 100 W3        29.67R
GILLAM         LGT SNOW  14  12  92 NW5       29.62R WCI   6
$$
                ***SASKATCHEWAN***

CITY           SKY/WX    TMP DP  RH WIND       PRES   REMARKS
ESTEVAN        NOT AVBL
KINDERSLEY     CRYSTALS   1  -2  85 N8        29.89R WCI -12
LLOYDMINSTER   FLURRIES   9   5  85 NW8       29.89S WCI  -4
PRINCE ALBERT  PTCLDY     3  -2  78 NW10      29.86R WCI -12
REGINA         FLURRIES  19  18  93 NW21G28   29.76R WCI   3
YORKTON        LGT SNOW  21  19  93 NW13      29.70R WCI   9


USA.gov is the U.S. government's official web portal to all federal, state and local government web resources and services.